Location: Hopville
(44.8032°N, 123.1329°W)
Time: 04:52:46
(UTC+00:00)

Cosmos 1891 Rocket - Pass Details

Date: 24 January 2021
Orbit: 934 x 1018 km, 82.9° (Epoch: 26 February)

Event Time Altitude Azimuth Distance (km) Brightness Sun altitude
Rises 13:12:52 0° 193° (SSW) 3,653 7.4 -25.9°
Reaches altitude 10° 13:15:24 10° 195° (SSW) 2,698 6.7 -25.5°
Maximum altitude 13:21:33 71° 280° (W) 1,006 4.3 -24.4°
Drops below altitude 10° 13:27:38 10° 4° (N) 2,667 6.8 -23.3°
Sets 13:30:08 0° 7° (N) 3,610 7.5 -22.9°
